When you browse on this site, cookies collect data to enhance your experience and personalize the content and advertising you see.
Visit our Privacy Policy to learn more. By continuing to use the site, you agree to this use of cookies and data.
  • In Sweden
  • List of Countries
  • For 7 days
  • Water Temperature
  • Weather Map
  • Weather Widgets
  • user-avatar
    Login

    Hourly Weather Balmazujvaros

    Today, 13 October, Sunday

    Time Temperature Precipitation Wind Pressure Humidity
    00:00 +13°C° 0 mm 1 mps 759 mmHg 64%
    01:00 +13°C° 0 mm 1 mps 759 mmHg 66%
    02:00 +13°C° 0 mm 1 mps 759 mmHg 67%
    03:00 +13°C° 0 mm 1 mps 759 mmHg 68%
    04:00 +12°C° 0 mm 1 mps 758 mmHg 69%
    05:00 +13°C° 0 mm 1 mps 759 mmHg 69%
    06:00 +13°C° 0 mm 1 mps 759 mmHg 68%
    07:00 +14°C° 0 mm 1 mps 759 mmHg 66%
    08:00 +15°C° 0 mm 1 mps 759 mmHg 60%
    09:00 +18°C° 0 mm 1 mps 759 mmHg 55%
    10:00 +19°C° 0 mm 2 mps 759 mmHg 49%
    11:00 +20°C° 0 mm 2 mps 759 mmHg 46%
    12:00 +21°C° 0 mm 2 mps 759 mmHg 44%
    13:00 +23°C° 0 mm 2 mps 759 mmHg 43%
    14:00 +23°C° 0 mm 2 mps 759 mmHg 46%
    15:00 +22°C° 0 mm 1 mps 758 mmHg 49%
    16:00 +22°C° 0 mm 1 mps 758 mmHg 52%
    17:00 +21°C° 0 mm 1 mps 758 mmHg 55%
    18:00 +19°C° 0 mm 1 mps 758 mmHg 58%
    19:00 +18°C° 0 mm 1 mps 758 mmHg 61%
    20:00 +17°C° 0 mm 2 mps 758 mmHg 63%
    21:00 +16°C° 0 mm 2 mps 758 mmHg 64%
    22:00 +16°C° 0 mm 2 mps 758 mmHg 65%
    23:00 +16°C° 0 mm 1 mps 758 mmHg 66%

    Tomorrow, 14 October, Monday

    Time Temperature Precipitation Wind Pressure Humidity
    00:00 +15°C° 0 mm 1 mps 758 mmHg 67%
    01:00 +15°C° 0 mm 1 mps 758 mmHg 67%
    02:00 +15°C° 0 mm 1 mps 758 mmHg 69%
    03:00 +14°C° 0 mm 1 mps 758 mmHg 71%
    04:00 +14°C° 0 mm 1 mps 758 mmHg 72%
    05:00 +14°C° 0 mm 1 mps 758 mmHg 72%
    06:00 +15°C° 0 mm 1 mps 758 mmHg 71%
    07:00 +15°C° 0 mm 1 mps 758 mmHg 71%
    08:00 +18°C° 0 mm 1 mps 758 mmHg 65%
    09:00 +19°C° 0 mm 1 mps 758 mmHg 60%
    10:00 +21°C° 0 mm 1 mps 758 mmHg 54%
    11:00 +22°C° 0 mm 1 mps 757 mmHg 52%
    12:00 +23°C° 0 mm 1 mps 757 mmHg 49%
    13:00 +24°C° 0 mm 1 mps 757 mmHg 47%
    14:00 +23°C° 0 mm 1 mps 757 mmHg 49%
    15:00 +23°C° 0 mm 1 mps 757 mmHg 52%
    16:00 +22°C° 0 mm 1 mps 756 mmHg 54%
    17:00 +21°C° 0 mm 1 mps 756 mmHg 58%
    18:00 +20°C° 0 mm 1 mps 757 mmHg 61%
    19:00 +19°C° 0 mm 1 mps 757 mmHg 64%
    20:00 +18°C° 0 mm 1 mps 756 mmHg 64%
    21:00 +18°C° 0 mm 1 mps 756 mmHg 65%
    22:00 +16°C° 0 mm 1 mps 756 mmHg 65%
    23:00 +16°C° 0 mm 2 mps 756 mmHg 65%

    Day after tomorrow, 15 October, Tuesday

    Time Temperature Precipitation Wind Pressure Humidity
    00:00 +16°C° 0 mm 2 mps 756 mmHg 65%
    01:00 +15°C° 0 mm 2 mps 756 mmHg 66%
    02:00 +15°C° 0 mm 2 mps 756 mmHg 66%
    03:00 +15°C° 0 mm 2 mps 755 mmHg 67%
    04:00 +14°C° 0 mm 2 mps 755 mmHg 68%
    05:00 +15°C° 0 mm 1 mps 755 mmHg 68%
    06:00 +15°C° 0 mm 1 mps 755 mmHg 68%
    07:00 +15°C° 0 mm 1 mps 755 mmHg 68%
    08:00 +18°C° 0 mm 1 mps 755 mmHg 61%
    09:00 +20°C° 0 mm 1 mps 755 mmHg 55%
    10:00 +22°C° 0 mm 1 mps 755 mmHg 48%
    11:00 +24°C° 0 mm 2 mps 754 mmHg 45%
    12:00 +25°C° 0 mm 2 mps 754 mmHg 41%
    13:00 +26°C° 0 mm 2 mps 754 mmHg 37%
    14:00 +26°C° 0 mm 2 mps 753 mmHg 40%
    15:00 +25°C° 0 mm 2 mps 753 mmHg 42%
    16:00 +24°C° 0 mm 2 mps 752 mmHg 45%
    17:00 +23°C° 0 mm 2 mps 753 mmHg 48%
    18:00 +21°C° 0 mm 2 mps 753 mmHg 51%
    19:00 +19°C° 0 mm 2 mps 753 mmHg 54%
    20:00 +19°C° 0 mm 2 mps 753 mmHg 57%
    21:00 +18°C° 0 mm 2 mps 753 mmHg 59%
    22:00 +18°C° 0 mm 2 mps 753 mmHg 61%
    23:00 +17°C° 0 mm 2 mps 753 mmHg 63%

    16 October, Wednesday

    Time Temperature Precipitation Wind Pressure Humidity
    00:00 +17°C° 0 mm 2 mps 753 mmHg 64%
    01:00 +16°C° 0 mm 2 mps 753 mmHg 66%
    02:00 +16°C° 0 mm 2 mps 753 mmHg 66%
    03:00 +16°C° 0 mm 2 mps 753 mmHg 67%
    04:00 +15°C° 0 mm 2 mps 753 mmHg 67%
    05:00 +15°C° 0 mm 2 mps 754 mmHg 67%
    06:00 +15°C° 0 mm 2 mps 754 mmHg 66%
    07:00 +15°C° 0 mm 2 mps 754 mmHg 66%
    08:00 +17°C° 0 mm 2 mps 754 mmHg 59%
    09:00 +19°C° 0 mm 2 mps 754 mmHg 52%
    10:00 +21°C° 0 mm 2 mps 754 mmHg 45%
    11:00 +23°C° 0 mm 2 mps 754 mmHg 42%
    12:00 +24°C° 0 mm 2 mps 754 mmHg 40%
    13:00 +25°C° 0 mm 2 mps 754 mmHg 38%
    14:00 +25°C° 0 mm 2 mps 754 mmHg 42%
    15:00 +24°C° 0 mm 2 mps 754 mmHg 46%
    16:00 +23°C° 0 mm 2 mps 754 mmHg 50%
    17:00 +22°C° 0 mm 1 mps 754 mmHg 55%
    18:00 +21°C° 0 mm 1 mps 755 mmHg 60%
    19:00 +19°C° 0 mm 1 mps 755 mmHg 65%
    20:00 +19°C° 0 mm 1 mps 755 mmHg 67%
    21:00 +18°C° 0 mm 1 mps 755 mmHg 69%
    22:00 +18°C° 0 mm 1 mps 756 mmHg 71%
    23:00 +18°C° 0 mm 1 mps 756 mmHg 71%

    17 October, Thursday

    Time Temperature Precipitation Wind Pressure Humidity
    00:00 +18°C° 0 mm 1 mps 756 mmHg 71%
    01:00 +16°C° 0 mm 1 mps 756 mmHg 71%
    02:00 +16°C° 0 mm 1 mps 756 mmHg 72%
    03:00 +15°C° 0 mm 0 mps 756 mmHg 74%
    04:00 +14°C° 0 mm 0 mps 756 mmHg 75%
    05:00 +14°C° 0 mm 0 mps 756 mmHg 74%
    06:00 +15°C° 0 mm 0 mps 756 mmHg 74%
    07:00 +15°C° 0 mm 0 mps 756 mmHg 74%
    08:00 +16°C° 0 mm 0 mps 756 mmHg 67%
    09:00 +20°C° 0 mm 1 mps 756 mmHg 61%
    10:00 +22°C° 0 mm 1 mps 756 mmHg 54%
    11:00 +21°C° 0 mm 0 mps 756 mmHg 51%
    12:00 +22°C° 0 mm 0 mps 755 mmHg 47%
    13:00 +23°C° 0 mm 0 mps 755 mmHg 43%
    14:00 +22°C° 0 mm 0 mps 755 mmHg 45%
    15:00 +24°C° 0 mm 1 mps 755 mmHg 48%
    16:00 +23°C° 0 mm 1 mps 755 mmHg 50%
    17:00 +22°C° 0 mm 1 mps 755 mmHg 53%
    18:00 +21°C° 0 mm 1 mps 755 mmHg 56%
    19:00 +20°C° 0 mm 1 mps 755 mmHg 59%
    20:00 +19°C° 0 mm 1 mps 755 mmHg 61%
    21:00 +19°C° 0 mm 1 mps 755 mmHg 63%
    22:00 +19°C° 0 mm 1 mps 755 mmHg 65%
    23:00 +18°C° 0 mm 1 mps 755 mmHg 66%

    18 October, Friday

    Time Temperature Precipitation Wind Pressure Humidity
    00:00 +18°C° 0 mm 1 mps 755 mmHg 68%
    01:00 +16°C° 0 mm 1 mps 755 mmHg 69%
    02:00 +16°C° 0 mm 1 mps 755 mmHg 71%
    03:00 +16°C° 0 mm 1 mps 755 mmHg 72%
    04:00 +15°C° 0 mm 1 mps 756 mmHg 74%
    05:00 +15°C° 0 mm 1 mps 756 mmHg 74%
    06:00 +16°C° 0 mm 1 mps 756 mmHg 73%
    07:00 +15°C° 0 mm 0 mps 756 mmHg 73%
    08:00 +19°C° 0 mm 1 mps 756 mmHg 67%
    09:00 +20°C° 0 mm 1 mps 756 mmHg 60%
    10:00 +22°C° 0 mm 1 mps 756 mmHg 54%
    11:00 +23°C° 0 mm 1 mps 756 mmHg 51%
    12:00 +24°C° 0 mm 1 mps 756 mmHg 48%
    13:00 +25°C° 0 mm 1 mps 756 mmHg 45%
    14:00 +24°C° 0 mm 1 mps 756 mmHg 48%
    15:00 +23°C° 0 mm 1 mps 755 mmHg 50%
    16:00 +23°C° 0 mm 1 mps 755 mmHg 53%
    17:00 +22°C° 0 mm 1 mps 755 mmHg 56%
    18:00 +21°C° 0 mm 1 mps 756 mmHg 59%
    19:00 +19°C° 0 mm 1 mps 756 mmHg 62%
    20:00 +19°C° 0 mm 1 mps 756 mmHg 63%
    21:00 +19°C° 0 mm 1 mps 756 mmHg 65%
    22:00 +18°C° 0 mm 1 mps 756 mmHg 66%
    23:00 +18°C° 0 mm 1 mps 756 mmHg 67%
    Show more